sat.trackr.live / text

‹ back to catalog

ONEWEB-0542

NORAD 54646 · 2022-166E

PAYLOAD ACTIVE UNKNOWN

§ Identity

Operator
Country
UK
Launch date
2022-12-08
Launch site
AFETR
Launch vehicle
Mass (kg)
RCS (m²)

Purposes: comms

External: N2YO · Heavens-Above · Gunter

§ Orbital elements

Epoch: 2026-05-24T23:40:44.801760Z

Period
108.94 min
Inclination
87.9260°
Eccentricity
0.0002225
Mean motion
13.21825436 rev/d
Perigee alt
1,176.1 km
Apogee alt
1,179.4 km
Semi-major
7,555.9 km
B*
8.1697e-5
RAAN
248.5843°
Arg perigee
95.2971°
Mean anomaly
264.8417°
Rev number
16,847

§ Raw data

ONEWEB-05421 54646U 22166E   26144.98662965  .00000047  00000+0  81697-4 0  99952 54646  87.9260 248.5843 0002225  95.2971 264.8417 13.21825436168470

JSON: /api/v1/satellites/54646 · /tle

For live sub-satellite position, see the globe view (requires WebGL).

§ Visibility from observer

Set your observer location to see the next 7 days of passes ≥ 10°. The values pass through the URL so the page stays shareable.

No JS? Fill the form by hand. The geolocation button needs JavaScript.